Time,TemperatureF,DewpointF,PressureIn,WindDirection,WindDirectionDegrees,WindSpeedMPH,WindSpeedGustMPH,Humidity,HourlyPrecipIn,Conditions,Clouds,dailyrainin,SoftwareType,DateUTC
2013-03-22 00:01:00,33.0,19.0,29.92,NNW,344,1.0,7.0,56,0.00,,,0.06,,2013-03-22 06:01:00,
2013-03-22 00:12:00,33.0,19.0,29.92,NNW,344,1.0,7.0,56,0.00,,,0.06,,2013-03-22 06:12:00,
2013-03-22 00:21:00,33.0,19.0,29.93,NNW,344,0.0,5.0,55,0.00,,,0.06,,2013-03-22 06:21:00,
2013-03-22 00:32:00,33.0,15.0,29.92,NNW,345,4.0,10.0,46,0.00,,,0.06,,2013-03-22 06:32:00,
2013-03-22 00:41:00,33.0,15.0,29.92,NNW,345,4.0,10.0,46,0.00,,,0.06,,2013-03-22 06:41:00,
2013-03-22 00:52:00,34.0,12.0,29.92,North,351,6.0,13.0,39,0.00,,,0.06,,2013-03-22 06:52:00,
2013-03-22 01:02:00,35.0,12.0,29.93,NNW,340,3.0,14.0,38,0.00,,,0.06,,2013-03-22 07:02:00,
2013-03-22 01:11:00,35.0,12.0,29.93,NNW,340,3.0,14.0,38,0.00,,,0.06,,2013-03-22 07:11:00,
2013-03-22 01:22:00,34.0,11.0,29.93,NNE,18,8.0,17.0,38,0.00,,,0.06,,2013-03-22 07:22:00,
2013-03-22 01:31:00,34.0,11.0,29.92,NNW,342,3.0,14.0,38,0.00,,,0.06,,2013-03-22 07:31:00,
2013-03-22 01:42:00,34.0,11.0,29.92,NNW,342,3.0,14.0,38,0.00,,,0.06,,2013-03-22 07:42:00,
2013-03-22 01:52:00,34.0,11.0,29.92,NNW,343,5.0,16.0,38,0.00,,,0.06,,2013-03-22 07:52:00,
2013-03-22 02:02:00,33.0,12.0,29.92,North,355,4.0,10.0,41,0.00,,,0.06,,2013-03-22 08:02:00,
2013-03-22 02:12:00,33.0,12.0,29.92,North,355,4.0,10.0,41,0.00,,,0.06,,2013-03-22 08:12:00,
2013-03-22 02:22:00,33.0,11.0,29.92,NNE,17,2.0,13.0,39,0.00,,,0.06,,2013-03-22 08:22:00,
2013-03-22 02:31:00,33.0,12.0,29.91,NNE,17,1.0,7.0,42,0.00,,,0.06,,2013-03-22 08:31:00,
2013-03-22 02:41:00,33.0,12.0,29.91,NNE,17,1.0,7.0,42,0.00,,,0.06,,2013-03-22 08:41:00,
2013-03-22 02:52:00,33.0,12.0,29.91,North,9,0.0,4.0,42,0.00,,,0.06,,2013-03-22 08:52:00,
2013-03-22 03:01:00,32.0,12.0,29.91,North,9,0.0,2.0,43,0.00,,,0.06,,2013-03-22 09:01:00,
2013-03-22 03:11:00,32.0,12.0,29.91,North,9,0.0,2.0,43,0.00,,,0.06,,2013-03-22 09:11:00,
2013-03-22 03:22:00,31.0,13.0,29.91,North,9,0.0,2.0,46,0.00,,,0.06,,2013-03-22 09:22:00,
2013-03-22 03:32:00,30.0,13.0,29.91,North,9,0.0,2.0,48,0.00,,,0.06,,2013-03-22 09:32:00,
2013-03-22 03:42:00,30.0,13.0,29.91,North,9,0.0,2.0,48,0.00,,,0.06,,2013-03-22 09:42:00,
2013-03-22 03:53:00,29.0,13.0,29.91,North,9,0.0,4.0,51,0.00,,,0.06,,2013-03-22 09:53:00,
2013-03-22 04:02:00,29.0,14.0,29.91,North,9,0.0,4.0,53,0.00,,,0.06,,2013-03-22 10:02:00,
2013-03-22 04:12:00,29.0,14.0,29.91,North,9,0.0,4.0,53,0.00,,,0.06,,2013-03-22 10:12:00,
2013-03-22 04:22:00,28.0,14.0,29.91,North,9,0.0,2.0,55,0.00,,,0.06,,2013-03-22 10:22:00,
2013-03-22 04:32:00,28.0,15.0,29.91,North,9,0.0,2.0,57,0.00,,,0.06,,2013-03-22 10:32:00,
2013-03-22 04:42:00,28.0,15.0,29.91,North,9,0.0,2.0,57,0.00,,,0.06,,2013-03-22 10:42:00,
2013-03-22 04:52:00,28.0,16.0,29.90,North,9,2.0,4.0,60,0.00,,,0.06,,2013-03-22 10:52:00,
2013-03-22 05:02:00,27.0,15.0,29.91,North,9,0.0,0.0,61,0.00,,,0.06,,2013-03-22 11:02:00,
2013-03-22 05:12:00,27.0,15.0,29.91,North,9,0.0,0.0,61,0.00,,,0.06,,2013-03-22 11:12:00,
2013-03-22 05:22:00,27.0,15.0,29.91,North,9,0.0,2.0,61,0.00,,,0.06,,2013-03-22 11:22:00,
2013-03-22 05:32:00,27.0,15.0,29.91,North,9,3.0,5.0,61,0.00,,,0.06,,2013-03-22 11:32:00,
2013-03-22 05:42:00,27.0,15.0,29.91,North,9,3.0,5.0,61,0.00,,,0.06,,2013-03-22 11:42:00,
2013-03-22 05:52:00,27.0,15.0,29.91,North,9,0.0,4.0,61,0.00,,,0.06,,2013-03-22 11:52:00,
2013-03-22 06:01:00,26.0,15.0,29.91,North,9,0.0,3.0,63,0.00,,,0.06,,2013-03-22 12:01:00,
2013-03-22 06:12:00,26.0,15.0,29.91,North,9,0.0,3.0,62,0.00,,,0.06,,2013-03-22 12:12:00,
2013-03-22 06:22:00,26.0,15.0,29.91,North,9,0.0,3.0,62,0.00,,,0.06,,2013-03-22 12:22:00,
2013-03-22 06:32:00,25.0,15.0,29.91,North,9,0.0,1.0,65,0.00,,,0.06,,2013-03-22 12:32:00,
2013-03-22 06:42:00,25.0,15.0,29.91,North,9,0.0,1.0,65,0.00,,,0.06,,2013-03-22 12:42:00,
2013-03-22 06:52:00,25.0,15.0,29.91,North,9,0.0,3.0,66,0.00,,,0.06,,2013-03-22 12:52:00,
2013-03-22 07:02:00,23.0,14.0,29.92,North,9,0.0,3.0,69,0.00,,,0.06,,2013-03-22 13:02:00,
2013-03-22 07:11:00,23.0,14.0,29.92,North,9,0.0,3.0,69,0.00,,,0.06,,2013-03-22 13:11:00,
2013-03-22 07:21:00,23.0,14.0,29.92,North,9,0.0,2.0,69,0.00,,,0.06,,2013-03-22 13:21:00,
2013-03-22 07:32:00,22.0,14.0,29.92,North,9,0.0,0.0,71,0.00,,,0.06,,2013-03-22 13:32:00,
2013-03-22 07:41:00,22.0,14.0,29.92,North,9,0.0,0.0,71,0.00,,,0.06,,2013-03-22 13:41:00,
2013-03-22 07:52:00,21.0,13.0,29.92,North,9,4.0,6.0,71,0.00,,,0.06,,2013-03-22 13:52:00,
2013-03-22 08:02:00,21.0,13.0,29.93,North,9,3.0,5.0,71,0.00,,,0.06,,2013-03-22 14:02:00,
2013-03-22 08:11:00,21.0,13.0,29.93,North,9,3.0,5.0,71,0.00,,,0.06,,2013-03-22 14:11:00,
2013-03-22 08:21:00,22.0,14.0,29.93,North,9,3.0,7.0,70,0.00,,,0.06,,2013-03-22 14:21:00,
2013-03-22 08:31:00,22.0,14.0,29.94,North,9,1.0,3.0,70,0.00,,,0.06,,2013-03-22 14:31:00,
2013-03-22 08:42:00,22.0,14.0,29.94,North,9,1.0,3.0,70,0.00,,,0.06,,2013-03-22 14:42:00,
2013-03-22 08:52:00,23.0,15.0,29.94,North,9,0.0,0.0,71,0.00,,,0.06,,2013-03-22 14:52:00,
2013-03-22 09:02:00,25.0,14.0,29.94,North,9,1.0,4.0,63,0.00,,,0.06,,2013-03-22 15:02:00,
2013-03-22 09:11:00,25.0,14.0,29.94,North,9,1.0,4.0,63,0.00,,,0.06,,2013-03-22 15:11:00,
2013-03-22 09:22:00,26.0,14.0,29.94,North,9,1.0,4.0,59,0.00,,,0.06,,2013-03-22 15:22:00,
2013-03-22 09:32:00,28.0,14.0,29.94,North,9,0.0,4.0,54,0.00,,,0.06,,2013-03-22 15:32:00,
2013-03-22 09:42:00,28.0,14.0,29.94,North,9,0.0,4.0,54,0.00,,,0.06,,2013-03-22 15:42:00,
2013-03-22 09:52:00,30.0,14.0,29.94,North,9,1.0,4.0,50,0.00,,,0.06,,2013-03-22 15:52:00,
2013-03-22 10:02:00,32.0,14.0,29.94,North,9,0.0,4.0,47,0.00,,,0.06,,2013-03-22 16:02:00,
2013-03-22 10:12:00,34.0,11.0,29.94,NW,317,8.0,19.0,38,0.00,,,0.06,,2013-03-22 16:12:00,
2013-03-22 10:22:00,34.0,11.0,29.94,NW,317,8.0,19.0,38,0.00,,,0.06,,2013-03-22 16:22:00,
2013-03-22 10:32:00,34.0,11.0,29.94,NW,317,8.0,19.0,38,0.00,,,0.06,,2013-03-22 16:32:00,
2013-03-22 10:42:00,34.0,10.0,29.95,WNW,290,13.0,21.0,36,0.00,,,0.06,,2013-03-22 16:42:00,
2013-03-22 10:52:00,34.0,10.0,29.95,WNW,290,13.0,21.0,36,0.00,,,0.06,,2013-03-22 16:52:00,
2013-03-22 11:02:00,35.0,11.0,29.95,NW,319,10.0,21.0,36,0.00,,,0.06,,2013-03-22 17:02:00,
2013-03-22 11:12:00,34.0,8.0,29.94,NW,307,15.0,28.0,33,0.00,,,0.06,,2013-03-22 17:12:00,
2013-03-22 11:22:00,34.0,8.0,29.94,NW,307,15.0,28.0,33,0.00,,,0.06,,2013-03-22 17:22:00,
2013-03-22 11:32:00,35.0,9.0,29.95,North,355,7.0,18.0,34,0.00,,,0.06,,2013-03-22 17:32:00,
2013-03-22 11:42:00,35.0,9.0,29.95,North,355,7.0,18.0,34,0.00,,,0.06,,2013-03-22 17:42:00,
2013-03-22 11:52:00,35.0,9.0,29.95,North,355,7.0,18.0,34,0.00,,,0.06,,2013-03-22 17:52:00,
2013-03-22 12:01:00,36.0,10.0,29.95,WNW,286,7.0,14.0,33,0.00,,,0.06,,2013-03-22 18:01:00,
2013-03-22 12:11:00,36.0,10.0,29.95,WNW,286,7.0,14.0,33,0.00,,,0.06,,2013-03-22 18:11:00,
2013-03-22 12:22:00,36.0,8.0,29.95,WNW,286,7.0,20.0,31,0.00,,,0.04,,2013-03-22 18:22:00,
2013-03-22 12:32:00,36.0,8.0,29.95,NNW,336,11.0,18.0,30,0.00,,,0.04,,2013-03-22 18:32:00,
2013-03-22 12:42:00,36.0,8.0,29.95,NNW,336,11.0,18.0,30,0.00,,,0.04,,2013-03-22 18:42:00,
2013-03-22 12:52:00,37.0,8.0,29.95,NNW,342,5.0,16.0,30,0.00,,,0.04,,2013-03-22 18:52:00,
2013-03-22 13:02:00,37.0,8.0,29.94,NNW,330,5.0,18.0,30,0.00,,,0.04,,2013-03-22 19:02:00,
2013-03-22 13:12:00,37.0,8.0,29.94,NNW,330,5.0,18.0,30,0.00,,,0.04,,2013-03-22 19:12:00,
2013-03-22 13:22:00,37.0,8.0,29.95,NW,319,7.0,16.0,30,0.00,,,0.01,,2013-03-22 19:22:00,
2013-03-22 13:32:00,38.0,8.0,29.94,NW,309,7.0,18.0,28,0.00,,,0.01,,2013-03-22 19:32:00,
2013-03-22 13:42:00,38.0,8.0,29.94,NW,309,7.0,18.0,28,0.00,,,0.01,,2013-03-22 19:42:00,
2013-03-22 13:52:00,37.0,7.0,29.95,NW,314,8.0,16.0,28,0.00,,,0.01,,2013-03-22 19:52:00,
2013-03-22 14:01:00,37.0,9.0,29.95,West,280,5.0,22.0,31,0.00,,,0.01,,2013-03-22 20:01:00,
2013-03-22 14:11:00,37.0,9.0,29.95,West,280,5.0,22.0,31,0.00,,,0.01,,2013-03-22 20:11:00,
2013-03-22 14:22:00,36.0,11.0,29.95,North,11,7.0,16.0,35,0.00,,,0.00,,2013-03-22 20:22:00,
2013-03-22 14:31:00,35.0,15.0,29.95,NE,45,7.0,16.0,43,0.00,,,0.00,,2013-03-22 20:31:00,
2013-03-22 14:42:00,35.0,15.0,29.95,NE,45,7.0,16.0,43,0.00,,,0.00,,2013-03-22 20:42:00,
2013-03-22 14:52:00,35.0,15.0,29.95,NNE,21,6.0,16.0,44,0.00,,,0.00,,2013-03-22 20:52:00,
2013-03-22 15:02:00,34.0,18.0,29.95,NE,49,6.0,16.0,51,0.00,,,0.00,,2013-03-22 21:02:00,
2013-03-22 15:11:00,34.0,16.0,29.95,North,349,4.0,12.0,47,0.00,,,0.00,,2013-03-22 21:11:00,
2013-03-22 15:22:00,34.0,16.0,29.95,North,349,4.0,12.0,47,0.00,,,0.00,,2013-03-22 21:22:00,
2013-03-22 15:32:00,35.0,16.0,29.96,North,5,1.0,7.0,45,0.00,,,0.00,,2013-03-22 21:32:00,
2013-03-22 15:42:00,35.0,16.0,29.96,North,5,1.0,7.0,45,0.00,,,0.00,,2013-03-22 21:42:00,
2013-03-22 16:02:00,30.0,22.0,29.98,NE,42,11.0,22.0,73,0.00,,,0.00,,2013-03-22 22:02:00,
2013-03-22 16:22:00,30.0,23.0,29.98,NNE,29,7.0,17.0,75,0.00,,,0.00,,2013-03-22 22:22:00,
2013-03-22 16:42:00,31.0,22.0,29.99,NE,47,9.0,19.0,69,0.00,,,0.00,,2013-03-22 22:42:00,
2013-03-22 16:52:00,32.0,21.0,30.00,NE,49,8.0,16.0,63,0.00,,,0.00,,2013-03-22 22:52:00,
2013-03-22 17:01:00,30.0,21.0,30.01,NE,43,14.0,26.0,68,0.00,,,0.00,,2013-03-22 23:01:00,
2013-03-22 17:11:00,30.0,21.0,30.01,NE,43,14.0,26.0,68,0.00,,,0.00,,2013-03-22 23:11:00,
2013-03-22 17:22:00,29.0,20.0,30.02,NE,48,11.0,21.0,69,0.00,,,0.00,,2013-03-22 23:22:00,
2013-03-22 17:32:00,29.0,20.0,30.02,NNE,26,16.0,26.0,70,0.00,,,0.00,,2013-03-22 23:32:00,
2013-03-22 17:42:00,29.0,20.0,30.02,NNE,26,16.0,26.0,70,0.00,,,0.00,,2013-03-22 23:42:00,
2013-03-22 17:52:00,29.0,20.0,30.03,North,5,11.0,25.0,69,0.00,,,0.00,,2013-03-22 23:52:00,
2013-03-22 18:01:00,28.0,18.0,30.03,NNE,30,11.0,22.0,67,0.00,,,0.00,,2013-03-23 00:01:00,
2013-03-22 18:12:00,28.0,18.0,30.03,NNE,30,11.0,22.0,67,0.00,,,0.00,,2013-03-23 00:12:00,
2013-03-22 18:22:00,28.0,19.0,30.04,NE,49,14.0,25.0,68,0.00,,,0.00,,2013-03-23 00:22:00,
2013-03-22 18:32:00,27.0,19.0,30.05,NNE,13,16.0,25.0,70,0.00,,,0.00,,2013-03-23 00:32:00,
2013-03-22 18:42:00,27.0,19.0,30.06,North,355,10.0,23.0,70,0.00,,,0.00,,2013-03-23 00:42:00,
2013-03-22 18:52:00,27.0,19.0,30.06,North,355,10.0,23.0,70,0.00,,,0.00,,2013-03-23 00:52:00,
2013-03-22 19:02:00,27.0,19.0,30.06,NNE,30,13.0,23.0,70,0.00,,,0.00,,2013-03-23 01:02:00,
2013-03-22 19:11:00,27.0,19.0,30.06,NNE,30,13.0,23.0,70,0.00,,,0.00,,2013-03-23 01:11:00,
2013-03-22 19:22:00,27.0,18.0,30.07,NE,35,14.0,22.0,67,0.00,,,0.00,,2013-03-23 01:22:00,
2013-03-22 19:31:00,26.0,17.0,30.08,NE,36,10.0,19.0,68,0.00,,,0.00,,2013-03-23 01:31:00,
2013-03-22 19:42:00,26.0,17.0,30.08,NE,36,10.0,19.0,68,0.00,,,0.00,,2013-03-23 01:42:00,
2013-03-22 19:52:00,26.0,17.0,30.08,NNE,31,9.0,22.0,68,0.00,,,0.00,,2013-03-23 01:52:00,
2013-03-22 20:02:00,25.0,17.0,30.09,NE,34,13.0,23.0,70,0.00,,,0.00,,2013-03-23 02:02:00,
2013-03-22 20:12:00,25.0,17.0,30.09,NE,34,13.0,23.0,70,0.00,,,0.00,,2013-03-23 02:12:00,
2013-03-22 20:22:00,25.0,16.0,30.10,North,355,12.0,23.0,68,0.00,,,0.00,,2013-03-23 02:22:00,
2013-03-22 20:31:00,25.0,16.0,30.11,North,5,11.0,22.0,68,0.00,,,0.00,,2013-03-23 02:31:00,
2013-03-22 20:42:00,25.0,16.0,30.11,North,5,11.0,22.0,68,0.00,,,0.00,,2013-03-23 02:42:00,
2013-03-22 20:52:00,25.0,16.0,30.12,NNW,348,11.0,20.0,69,0.00,,,0.00,,2013-03-23 02:52:00,
2013-03-22 21:02:00,24.0,15.0,30.13,NE,42,10.0,18.0,69,0.00,,,0.00,,2013-03-23 03:02:00,
2013-03-22 21:11:00,24.0,15.0,30.13,NE,42,10.0,18.0,69,0.00,,,0.00,,2013-03-23 03:11:00,
2013-03-22 21:22:00,24.0,15.0,30.14,NE,35,11.0,22.0,68,0.00,,,0.00,,2013-03-23 03:22:00,
2013-03-22 21:32:00,24.0,15.0,30.14,NE,48,12.0,19.0,68,0.00,,,0.00,,2013-03-23 03:32:00,
2013-03-22 21:42:00,24.0,15.0,30.14,NE,48,12.0,19.0,68,0.00,,,0.00,,2013-03-23 03:42:00,
2013-03-22 21:53:00,24.0,15.0,30.15,NE,51,7.0,16.0,68,0.00,,,0.00,,2013-03-23 03:53:00,
2013-03-22 22:02:00,24.0,15.0,30.16,NNE,28,8.0,14.0,69,0.00,,,0.00,,2013-03-23 04:02:00,
2013-03-22 22:12:00,24.0,15.0,30.16,NNE,28,8.0,14.0,69,0.00,,,0.00,,2013-03-23 04:12:00,
2013-03-22 22:22:00,24.0,15.0,30.16,NE,40,7.0,15.0,68,0.00,,,0.00,,2013-03-23 04:22:00,
2013-03-22 22:32:00,23.0,14.0,30.17,NE,40,8.0,17.0,69,0.00,,,0.00,,2013-03-23 04:32:00,
2013-03-22 22:42:00,23.0,14.0,30.17,NE,40,8.0,17.0,69,0.00,,,0.00,,2013-03-23 04:42:00,
2013-03-22 22:53:00,23.0,14.0,30.18,NNE,26,9.0,16.0,69,0.00,,,0.00,,2013-03-23 04:53:00,
2013-03-22 23:02:00,23.0,15.0,30.19,NNE,28,7.0,18.0,70,0.00,,,0.00,,2013-03-23 05:02:00,
2013-03-22 23:11:00,23.0,15.0,30.19,NNE,28,7.0,18.0,70,0.00,,,0.00,,2013-03-23 05:11:00,
2013-03-22 23:22:00,23.0,15.0,30.19,North,351,11.0,19.0,70,0.00,,,0.00,,2013-03-23 05:22:00,
2013-03-22 23:32:00,22.0,14.0,30.19,North,5,10.0,17.0,70,0.00,,,0.00,,2013-03-23 05:32:00,
2013-03-22 23:42:00,22.0,14.0,30.19,North,5,10.0,17.0,70,0.00,,,0.00,,2013-03-23 05:42:00,
2013-03-22 23:52:00,22.0,13.0,30.20,NE,36,8.0,18.0,69,0.00,,,0.00,,2013-03-23 05:52:00,